Location: Salisbury
(35.6710°N, 80.4740°W)
Time: 18:19:11
(UTC-04:00)

OTV 5 (USA 277) - Visible Passes

Search period start: 21 May 2018 00:00
Search period end: 31 May 2018 00:00
Orbit: 308 x 326 km, 54.5° (Epoch: 06 May)

Date Brightness Start Highest point End Pass type
(mag) Time Alt. Az. Time Alt. Az. Time Alt. Az.
25 May ? 05:31:26 10° SSE 05:32:47 13° SE 05:34:09 10° E visible
28 May ? 04:40:45 19° SSE 04:41:38 22° SE 04:43:51 10° ENE visible
29 May ? 04:54:46 30° SW 04:55:56 82° SE 04:58:41 10° NE visible
30 May ? 05:08:42 16° W 05:10:22 28° NW 05:12:50 10° NNE visible
